Temperature
24 23 23 23 23 24 24 23 23 24 24 23 22 22 22 22 22 21 21 21 21 21 21 21 21 21 21 21 20 20 20 20 20 19 19 19 19 18 18 18 18 18 18 18
23 23 24 25 24 24 24 23 23 23 24 24 22 22 22 22 21 22 22 21 21 21 21 21 21 21 21 21 20 20 20 20 20 19 19 19 19 18 18 18 18 18 18 18
24 24 25 25 25 24 24 23 23 23 23 23 23 22 22 22 22 22 22 22 21 22 22 22 21 21 21 21 21 20 20 20 20 19 19 19 19 18 18 18 18 18 18 18
24 24 25 25 25 25 24 24 24 24 22 21 22 21 22 21 21 21 21 21 21 22 22 22 22 21 21 21 21 20 20 20 20 19 19 19 19 18 18 18 18 17 17 17
24 25 25 25 25 25 24 24 24 23 22 21 21 21 21 20 21 21 21 21 21 22 22 22 22 22 21 21 20 20 20 20 20 19 19 19 19 18 18 18 18 17 17 17
24 25 26 25 26 25 24 23 22 20 20 21 21 21 21 20 21 21 21 22 22 22 22 22 22 22 21 21 21 20 20 20 19 19 19 19 19 18 18 18 18 17 17 17
24 25 25 26 25 25 24 22 21 22 20 21 20 21 20 21 21 21 21 21 22 22 21 22 21 21 21 21 21 20 20 20 19 19 19 19 18 18 18 18 18 18 17 17
23 23 25 25 25 24 23 22 22 22 21 20 20 20 21 21 21 21 21 21 21 21 21 21 21 21 21 21 21 20 20 20 19 19 19 18 18 18 18 18 18 18 17 17
22 23 25 26 25 24 23 21 21 20 20 20 20 20 21 21 21 21 21 21 21 21 21 21 21 21 21 21 21 20 20 20 19 19 19 18 18 18 18 18 17 17 17 17
22 24 25 25 25 24 23 20 19 19 20 21 21 21 21 21 21 20 20 20 20 21 21 21 21 21 21 21 20 20 20 19 19 19 18 18 18 18 18 17 17 17 17 17
22 23 24 24 24 24 23 21 18 17 19 20 21 21 22 21 20 20 20 20 20 21 21 21 21 21 21 20 20 20 19 19 19 19 18 18 18 18 17 17 17 17 16 16
21 20 21 23 23 23 23 21 19 21 20 18 19 20 21 20 20 20 20 20 20 21 21 21 21 21 20 20 20 19 19 19 19 19 18 18 18 18 17 17 17 16 16 16
21 20 21 22 23 23 23 21 19 18 17 17 19 21 21 19 19 20 20 20 20 20 20 20 20 20 20 20 19 19 19 19 19 18 18 18 18 17 17 17 17 16 16 16
21 19 20 22 22 22 23 22 20 19 19 18 19 20 20 19 19 19 19 19 20 20 20 20 20 20 20 19 19 19 19 19 19 18 18 18 18 17 17 17 16 16 16 16
20 20 20 21 22 22 23 22 21 21 20 20 20 20 20 19 19 19 19 19 19 19 19 20 20 20 20 19 19 19 19 18 18 18 18 17 17 17 17 17 16 16 16 15
18 20 20 22 22 22 22 22 22 22 21 20 21 20 19 19 19 18 18 18 18 19 19 19 19 19 19 19 19 18 18 18 18 18 17 17 17 17 16 16 16 16 15 15
17 19 19 20 21 22 21 21 21 21 20 20 20 20 19 18 18 18 18 18 19 19 19 19 19 19 19 19 19 18 18 18 18 17 17 17 16 16 16 16 16 15 15 15
17 17 16 18 21 21 21 21 21 20 20 19 19 19 18 18 18 18 19 19 19 18 19 19 19 19 19 19 18 18 18 18 17 17 17 17 16 16 16 15 15 15 15 15
15 16 16 16 19 20 21 20 20 20 20 19 18 18 18 18 18 18 18 19 19 19 19 19 19 19 19 18 18 18 17 17 17 17 17 16 16 16 15 15 15 15 15 14
14 15 16 16 19 19 20 20 20 20 19 19 18 17 17 17 17 17 18 18 18 18 19 19 18 18 18 18 17 17 17 17 16 16 16 16 16 15 15 15 15 15 14 14
16 15 16 16 18 18 18 19 20 20 20 19 19 18 18 17 18 18 18 18 18 18 18 18 18 18 17 17 17 17 17 16 16 16 15 15 15 15 15 14 14 14 14 14
16 16 15 15 17 18 18 18 18 18 19 19 19 19 19 18 18 18 18 18 17 17 17 17 17 17 17 16 16 16 16 16 15 15 15 15 15 15 14 14 14 14 13 13
14 15 14 15 16 16 17 17 18 19 19 19 19 19 19 18 18 18 17 17 17 17 17 17 17 16 16 16 16 16 15 15 15 15 15 14 14 14 14 14 14 13 13 13
14 13 13 14 15 16 16 17 18 19 19 19 19 19 19 18 18 17 17 17 17 16 16 16 16 16 15 15 15 15 15 15 15 14 14 14 14 14 13 13 13 13 13 13
14 14 14 14 15 16 17 17 18 18 19 19 19 19 18 18 17 17 17 17 16 16 16 16 16 15 15 15 15 14 14 14 14 14 13 13 13 13 13 13 12 12 12 12
13 13 14 15 15 15 16 17 18 18 18 18 18 18 17 17 17 17 17 16 16 16 16 15 15 15 15 14 14 14 14 14 13 13 13 13 12 12 12 12 12 12 12 12
Wind_Speed
2 3 2 6 7 5 4 3 4 4 2 3 2 2 3 4 4 4 4 5 5 6 4 3 4 4 4 4 4 4 4 3 3 2 2 2 2 2 2 3 4 4 3 3
4 3 7 4 4 4 3 2 3 3 1 2 1 1 2 4 5 6 6 7 7 5 3 4 5 5 5 5 4 4 4 4 3 2 2 2 2 2 2 2 4 4 3 3
5 6 3 2 2 2 3 5 4 3 2 4 3 3 2 1 1 2 4 5 6 7 6 6 6 6 5 5 5 5 4 3 3 3 3 4 3 3 3 3 3 3 4 4
5 5 2 2 3 4 4 5 5 4 3 1 2 2 5 3 2 3 5 5 6 7 6 6 6 6 6 6 5 5 4 4 3 4 4 5 4 2 1 1 1 2 3 3
5 3 2 4 5 6 4 2 4 3 4 2 2 1 6 1 4 6 6 6 7 7 7 7 7 7 6 6 5 5 5 4 3 4 5 5 3 2 1 2 2 2 2 3
5 3 4 5 2 4 4 6 7 6 5 1 2 2 5 4 6 5 5 6 5 6 6 6 5 5 5 5 5 4 5 4 3 4 4 5 5 3 3 2 1 1 1 2
5 5 3 3 2 2 5 6 4 4 3 4 2 2 7 6 5 6 6 6 5 5 6 7 7 7 7 7 6 5 5 4 3 4 4 4 4 4 4 2 2 1 1 1
2 6 4 3 6 6 5 8 7 5 4 4 2 4 6 5 3 2 3 3 3 3 5 6 7 7 7 7 7 7 6 4 4 4 4 3 4 3 2 2 2 1 1 1
6 6 4 2 2 8 6 4 6 7 3 0 4 5 7 2 2 1 1 3 3 3 4 5 6 7 7 7 7 7 7 5 4 4 4 3 3 3 3 2 2 1 1 1
8 4 4 3 4 4 5 8 6 6 5 2 5 4 4 4 2 2 1 2 2 2 3 4 5 6 6 6 6 6 6 5 4 3 3 3 2 2 2 2 2 1 1 0
6 5 4 3 2 3 3 5 6 5 5 6 3 6 5 6 5 4 3 2 3 3 4 4 4 4 5 5 5 5 5 4 4 4 3 3 2 2 2 2 1 1 1 1
5 5 2 4 4 1 3 5 7 5 4 4 4 6 4 4 4 4 3 2 2 3 4 4 4 5 5 5 5 5 4 4 3 3 3 3 2 2 2 1 1 1 1 0
6 6 2 5 5 2 3 3 4 6 6 5 4 5 2 1 1 3 4 3 2 3 4 5 5 5 5 5 4 4 4 4 3 4 3 2 2 2 2 2 1 1 0 0
6 5 6 8 7 4 2 2 4 6 5 5 6 6 4 2 2 2 3 4 3 3 4 5 4 4 4 4 4 4 4 4 5 5 4 3 2 2 2 2 1 1 1 0
5 4 4 4 3 3 3 3 5 5 7 8 7 6 7 5 5 4 4 4 3 3 4 4 4 4 4 4 3 3 3 4 4 5 3 3 2 2 2 1 1 0 0 0
3 5 3 1 1 2 1 1 4 4 4 4 3 5 4 1 2 3 4 5 4 4 4 4 4 4 4 4 4 4 3 3 4 4 3 2 2 2 1 1 1 1 1 1
2 5 4 3 2 2 2 4 4 3 3 5 6 6 3 2 3 4 4 4 4 4 4 4 4 4 4 4 4 4 4 4 4 3 2 2 3 2 1 1 2 1 0 1
6 5 4 3 3 4 7 2 3 4 1 3 4 4 5 4 3 2 2 4 3 3 3 4 4 4 4 4 4 4 4 4 3 2 2 2 2 2 2 2 1 1 1 1
4 7 5 4 4 4 5 1 3 4 2 3 4 4 4 5 4 3 1 2 3 3 3 3 3 4 4 4 4 5 5 4 2 2 2 2 2 3 2 2 2 1 1 0
5 5 6 5 5 7 6 3 2 4 2 4 5 6 6 5 3 2 0 3 3 4 3 3 4 4 4 3 5 5 4 3 2 1 1 1 1 2 2 2 2 1 1 0
3 4 4 4 3 6 5 4 2 5 6 3 6 7 7 5 4 3 4 4 4 5 5 5 6 5 4 4 5 5 4 1 1 1 2 2 1 2 2 1 1 1 1 1
4 4 3 4 3 6 3 2 5 6 2 3 5 6 7 6 5 5 5 5 5 6 5 6 6 5 4 4 6 5 2 1 1 2 3 2 1 2 2 2 2 2 2 2
3 5 5 5 5 4 2 3 3 2 2 2 5 6 8 7 5 5 5 5 4 5 4 4 6 5 3 3 4 4 2 1 3 3 2 2 2 2 2 2 2 1 2 1
1 1 3 1 3 3 2 2 2 1 2 3 5 7 8 7 7 6 5 5 4 4 4 4 5 5 3 1 2 2 1 2 4 3 2 2 3 2 2 2 1 1 1 1
3 1 2 1 3 3 4 2 1 3 4 5 5 5 7 9 7 6 5 4 4 3 3 3 4 4 2 1 1 1 2 3 4 3 2 2 2 2 1 1 0 1 1 2
3 4 4 4 5 3 3 2 1 3 3 4 6 5 5 7 7 6 5 4 4 4 3 3 3 3 2 2 1 1 2 3 4 3 2 1 1 1 1 1 2 3 1 1
Wind_Direction
61 79 224 227 200 193 181 205 251 262 241 144 200 249 240 177 169 180 188 191 199 205 203 175 167 156 140 132 132 137 132 124 114 102 99 89 71 56 50 50 49 56 65 78
39 272 241 223 178 168 180 215 265 313 23 122 133 289 247 184 192 194 196 199 201 201 179 174 170 162 160 157 153 147 145 140 135 130 125 117 109 88 70 43 45 50 58 68
198 238 226 162 159 153 213 197 209 208 29 45 70 343 299 251 206 196 202 202 200 201 196 187 182 173 163 164 166 161 155 146 139 127 108 95 76 59 52 43 30 27 50 63
235 251 211 213 231 173 251 217 177 164 118 326 88 279 282 250 262 223 217 206 205 208 197 183 178 174 172 170 161 150 149 144 139 131 127 129 125 118 117 91 52 29 47 56
242 219 189 224 232 181 212 120 114 120 117 54 18 172 285 310 256 245 228 212 200 201 192 184 182 175 165 155 154 148 141 134 127 131 138 129 119 121 104 80 61 38 31 45
250 237 203 207 196 150 136 68 55 51 71 -0 256 191 277 242 236 248 229 216 197 188 185 176 166 149 148 142 137 139 136 133 131 131 133 139 142 137 121 103 80 36 23 26
306 295 251 169 117 71 104 95 43 6 8 262 264 214 252 257 248 233 226 217 196 181 178 171 166 163 159 151 150 149 146 145 144 138 139 148 154 153 152 151 141 119 38 2
214 284 263 195 179 177 169 146 160 191 216 272 307 246 258 276 287 244 191 176 147 164 173 177 175 170 166 162 159 157 161 164 166 159 158 154 157 159 159 162 155 164 196 247
185 252 282 235 180 144 143 163 156 130 129 27 284 290 302 316 9 46 112 121 141 167 175 173 165 165 165 168 169 168 166 166 169 166 157 153 157 155 155 157 152 170 224 202
164 228 284 310 73 40 132 140 107 122 146 220 290 284 255 263 261 274 218 158 178 161 151 153 160 163 166 171 166 162 163 166 161 159 169 172 169 157 149 148 155 175 201 133
147 175 296 25 131 181 108 101 106 113 144 153 224 268 233 216 210 207 214 188 183 175 162 154 156 155 150 147 148 155 161 154 157 164 160 150 156 149 139 151 169 184 193 169
151 137 234 267 271 207 137 146 144 148 185 165 172 260 290 208 199 180 182 188 167 156 151 142 135 133 133 135 139 151 160 164 168 155 144 147 140 137 144 162 183 165 194 205
140 123 98 341 343 15 85 121 129 120 116 148 168 255 322 55 153 165 166 166 145 130 124 124 127 138 145 144 143 141 159 170 154 142 139 139 145 154 169 179 182 166 159 347
126 117 163 193 215 200 166 144 145 127 144 184 213 236 281 266 205 194 168 166 156 135 127 127 131 139 141 144 150 150 153 150 145 143 148 160 173 181 184 172 179 199 191 176
116 144 180 206 208 169 164 174 167 174 181 182 212 215 241 229 208 196 172 160 147 140 137 140 142 141 139 137 138 146 147 143 143 140 152 176 170 155 138 140 166 169 159 213
93 145 149 209 202 163 119 231 185 183 172 187 188 243 246 212 129 149 157 158 163 170 163 152 143 141 147 152 150 147 151 147 140 142 160 157 139 143 147 153 121 87 56 45
115 134 138 221 271 87 277 249 196 179 186 176 199 224 184 148 158 176 173 164 173 177 169 164 161 159 159 162 155 152 156 139 131 135 146 160 158 160 173 169 131 130 102 56
143 125 133 145 101 206 241 263 175 154 183 199 197 198 177 169 149 120 128 158 166 165 167 170 166 163 162 150 139 133 120 116 123 135 150 162 160 161 154 138 138 146 147 141
147 138 125 132 165 247 284 240 167 160 257 248 196 173 133 119 86 42 44 131 148 151 154 164 159 152 140 135 130 118 112 108 113 144 162 169 170 167 156 159 180 178 162 182
65 95 117 128 153 213 240 273 205 123 261 258 183 167 153 123 133 246 173 106 100 92 92 109 108 104 108 108 113 114 116 119 141 167 161 139 153 157 168 178 172 155 148 210
56 59 111 144 186 249 267 288 118 162 233 216 170 162 154 162 181 160 118 101 97 88 89 95 98 97 103 112 115 111 105 119 189 143 118 118 141 144 137 121 109 114 101 76
157 140 159 141 169 246 296 120 166 215 240 151 152 154 147 135 120 115 112 108 97 86 85 94 95 88 89 104 111 107 114 202 126 104 107 114 119 122 105 105 88 91 94 77
175 184 178 180 205 250 283 236 251 190 169 170 153 150 142 135 138 129 124 120 110 105 101 100 102 93 77 91 119 130 173 148 117 107 112 116 98 78 90 111 109 90 82 77
280 129 132 205 276 295 311 330 343 149 164 160 151 148 143 143 146 139 135 132 120 108 109 108 106 100 86 79 109 132 135 121 121 118 118 121 107 84 68 75 95 111 117 89
225 149 125 234 275 341 347 346 30 69 86 106 116 133 145 140 146 148 145 144 140 127 115 121 127 129 134 112 100 104 115 117 122 118 110 113 121 126 96 61 80 151 199 181
213 182 173 220 224 189 244 278 45 95 107 123 124 121 135 145 151 147 149 154 149 146 135 132 137 138 147 135 114 97 112 125 125 123 123 131 143 136 131 98 28 25 28 30
Height
1483 1489 1494 1490 1488 1490 1493 1498 1501 1496 1489 1492 1496 1496 1494 1493 1494 1495 1496 1497 1498 1499 1500 1502 1503 1504 1506 1507 1508 1508 1508 1509 1509 1510 1510 1510 1511 1511 1511 1511 1512 1511 1511 1511
1489 1492 1484 1482 1484 1488 1492 1498 1499 1494 1489 1493 1497 1497 1493 1493 1493 1494 1495 1496 1496 1498 1499 1501 1502 1504 1505 1507 1508 1509 1509 1510 1510 1511 1511 1512 1512 1512 1512 1512 1512 1512 1512 1511
1489 1485 1479 1482 1486 1490 1492 1496 1497 1497 1494 1494 1498 1502 1497 1493 1493 1493 1494 1494 1495 1496 1497 1499 1501 1502 1504 1506 1507 1509 1510 1510 1511 1512 1512 1513 1513 1513 1513 1513 1513 1513 1512 1512
1484 1479 1479 1483 1485 1487 1495 1486 1488 1493 1502 1509 1504 1518 1501 1495 1493 1492 1492 1492 1493 1494 1496 1497 1499 1501 1503 1505 1507 1508 1510 1511 1512 1512 1513 1513 1513 1513 1513 1514 1514 1514 1513 1513
1483 1478 1479 1483 1481 1481 1486 1482 1487 1493 1503 1512 1509 1516 1508 1497 1496 1491 1489 1489 1490 1492 1494 1496 1497 1499 1502 1504 1506 1508 1510 1511 1512 1513 1513 1513 1514 1514 1514 1514 1514 1514 1514 1514
1477 1474 1474 1475 1475 1477 1480 1487 1493 1502 1510 1522 1514 1517 1512 1500 1492 1488 1486 1486 1488 1489 1492 1494 1497 1499 1501 1503 1506 1508 1510 1511 1512 1513 1513 1513 1514 1514 1514 1514 1514 1514 1514 1514
1482 1475 1471 1471 1477 1479 1483 1500 1519 1522 1529 1525 1512 1514 1508 1489 1485 1484 1484 1484 1485 1488 1490 1493 1495 1497 1499 1502 1505 1507 1509 1511 1512 1513 1513 1514 1514 1514 1514 1514 1514 1514 1514 1513
1493 1491 1474 1470 1474 1481 1485 1494 1517 1527 1531 1525 1513 1514 1498 1484 1482 1481 1482 1483 1485 1487 1489 1491 1493 1495 1498 1500 1503 1506 1508 1509 1511 1512 1513 1513 1514 1514 1514 1515 1515 1515 1514 1514
1491 1489 1470 1467 1468 1473 1485 1493 1494 1513 1520 1525 1518 1507 1492 1482 1482 1482 1482 1483 1484 1486 1487 1490 1492 1494 1496 1499 1501 1504 1506 1508 1510 1511 1512 1513 1513 1514 1514 1514 1514 1514 1514 1514
1477 1486 1473 1469 1468 1472 1476 1486 1501 1513 1526 1530 1519 1511 1504 1488 1485 1483 1482 1483 1484 1485 1487 1488 1491 1493 1495 1498 1500 1503 1505 1507 1509 1510 1511 1512 1513 1513 1513 1514 1514 1514 1514 1513
1472 1484 1480 1475 1477 1479 1481 1489 1499 1510 1513 1526 1528 1514 1485 1483 1482 1482 1482 1482 1483 1484 1485 1487 1489 1492 1495 1497 1499 1502 1504 1505 1507 1509 1510 1511 1512 1512 1513 1513 1513 1513 1513 1512
1471 1483 1490 1481 1472 1471 1474 1482 1493 1505 1513 1516 1520 1510 1479 1478 1479 1480 1482 1483 1483 1484 1485 1487 1489 1491 1493 1496 1498 1500 1503 1504 1506 1508 1509 1510 1511 1511 1512 1512 1512 1512 1512 1511
1470 1483 1496 1493 1487 1478 1478 1481 1487 1496 1508 1517 1517 1504 1479 1478 1479 1480 1481 1482 1483 1484 1485 1487 1489 1490 1492 1495 1497 1499 1501 1503 1504 1506 1508 1509 1510 1510 1510 1511 1511 1511 1511 1510
1463 1480 1489 1496 1491 1481 1480 1481 1485 1492 1505 1510 1505 1495 1483 1480 1480 1479 1480 1481 1482 1483 1485 1486 1488 1489 1492 1494 1496 1498 1500 1501 1503 1505 1506 1507 1508 1509 1509 1510 1510 1510 1510 1509
1463 1478 1478 1477 1475 1475 1477 1478 1481 1485 1488 1495 1491 1490 1482 1478 1478 1478 1479 1481 1482 1483 1484 1486 1487 1489 1491 1493 1495 1497 1499 1500 1502 1503 1505 1506 1507 1508 1508 1509 1509 1509 1509 1508
1466 1475 1477 1478 1474 1475 1477 1476 1477 1478 1481 1484 1484 1484 1476 1475 1476 1477 1478 1480 1481 1482 1484 1486 1487 1489 1490 1492 1494 1496 1498 1499 1501 1502 1503 1505 1505 1507 1507 1508 1508 1508 1508 1507
1471 1475 1483 1487 1478 1476 1485 1477 1476 1477 1477 1478 1482 1478 1474 1475 1476 1477 1478 1479 1480 1481 1483 1485 1487 1488 1490 1492 1493 1495 1497 1498 1500 1501 1503 1504 1504 1505 1506 1507 1507 1507 1506 1506
1470 1477 1485 1489 1485 1495 1482 1469 1470 1473 1474 1473 1473 1472 1472 1474 1475 1477 1478 1479 1480 1481 1483 1484 1486 1488 1490 1492 1493 1495 1496 1497 1499 1501 1502 1503 1503 1503 1504 1505 1505 1505 1505 1505
1465 1473 1486 1493 1494 1488 1476 1469 1470 1473 1476 1471 1471 1471 1473 1474 1476 1478 1478 1478 1479 1480 1482 1483 1485 1487 1488 1490 1492 1493 1495 1497 1498 1500 1501 1501 1502 1502 1502 1503 1503 1503 1503 1503
1467 1470 1482 1491 1492 1494 1478 1466 1465 1470 1477 1469 1468 1470 1472 1473 1479 1479 1478 1478 1479 1480 1481 1483 1484 1486 1487 1489 1491 1493 1495 1496 1497 1499 1499 1500 1501 1501 1501 1501 1501 1501 1501 1500
1474 1478 1483 1488 1489 1483 1470 1465 1465 1480 1476 1466 1466 1468 1470 1472 1474 1476 1476 1478 1479 1480 1481 1483 1484 1486 1487 1489 1491 1492 1494 1495 1496 1497 1498 1498 1499 1499 1500 1499 1499 1499 1499 1499
1477 1481 1485 1488 1488 1484 1466 1465 1469 1469 1463 1463 1465 1467 1469 1471 1473 1474 1476 1477 1479 1480 1481 1483 1485 1486 1488 1489 1490 1491 1492 1494 1495 1496 1496 1497 1498 1498 1497 1498 1498 1498 1498 1497
1473 1473 1475 1477 1477 1468 1465 1464 1463 1463 1462 1463 1464 1466 1468 1470 1472 1474 1476 1478 1479 1480 1482 1483 1484 1486 1487 1489 1490 1490 1491 1492 1493 1494 1495 1495 1496 1496 1496 1496 1496 1496 1496 1495
1469 1469 1471 1473 1468 1465 1464 1462 1462 1461 1461 1462 1464 1466 1468 1470 1472 1474 1476 1478 1479 1481 1482 1483 1484 1485 1488 1489 1490 1490 1491 1492 1492 1493 1493 1494 1494 1494 1495 1495 1495 1494 1494 1494
1468 1468 1470 1470 1467 1464 1463 1462 1462 1462 1462 1463 1465 1467 1468 1470 1472 1474 1476 1478 1480 1482 1483 1484 1485 1486 1488 1489 1490 1490 1491 1491 1491 1492 1492 1493 1493 1493 1493 1493 1493 1493 1493 1493
1465 1466 1468 1468 1464 1464 1464 1463 1463 1462 1463 1464 1465 1467 1470 1471 1473 1475 1477 1479 1480 1482 1483 1484 1485 1486 1487 1488 1489 1489 1490 1491 1490 1490 1491 1491 1492 1492 1492 1492 1492 1492 1492 1492